• Join FlightAware (Why Join?)
  • Login
  • US Flag 
03:08AM EST


 

Airport Tracker/Info


-or-


 

Live Flight TrackerFlight Track Log ✈ FFT930 ✈ 09-May-2013 ✈ KDTW - KTTN

Flight Track Log - Related Links

Times and Time Zones

All times are in EDT time to prevent confusion due to time zone crossing. See the FFT930 flight status page for this flight to view local times or setup timezone preferences in your user account.

Time Position Orientation Groundspeed Altitude Reporting Facility
EDT Latitude Longitude Course Direction KTS MPH feet Rate Location/Type
02:16PM 42.1994 -83.3608 178° South 158 182 1,300  Level Cleveland Center
02:17PM 42.1764 -83.3600 178° South 159 183 2,400 1,714 Climbing Cleveland Center
02:18PM 42.1203 -83.3547 176° South 244 281 3,900 2,195 Climbing Cleveland Center
02:19PM 42.0478 -83.3375 170° South 288 331 6,900 2,835 Climbing Cleveland Center
02:20PM 42.0358 -83.2308 99° East 278 320 9,900 1,488 Climbing Cleveland Center
02:21PM 42.0631 -83.1228 71° East 278 320 10,000 750 Climbing Cleveland Center
02:22PM 42.0886 -83.0092 73° East 289 333 11,400 2,250 Climbing Cleveland Center
02:23PM 42.1203 -82.8900 70° East 318 366 14,500 2,800 Climbing Cleveland Center
02:24PM 42.1478 -82.7592 74° East 341 392 17,000 2,400 Climbing Cleveland Center
02:25PM 42.1814 -82.6286 71° East 356 410 19,300 2,200 Climbing Cleveland Center
02:26PM 42.2153 -82.4867 72° East 371 427 21,400 2,150 Climbing Cleveland Center
02:27PM 42.2133 -82.3381 91° East 388 447 23,600 2,000 Climbing Cleveland Center
02:28PM 42.2053 -82.1808 94° East 399 459 25,400 1,650 Climbing Cleveland Center
02:29PM 42.1947 -82.0208 95° East 418 481 26,900 1,600 Climbing Cleveland Center
02:30PM 42.1403 -81.8769 117° Southeast 425 489 28,600 1,600 Climbing Cleveland Center
02:31PM 42.0456 -81.7686 140° Southeast 422 486 30,100 1,250 Climbing Cleveland Center
02:32PM 41.9425 -81.6522 140° Southeast 455 524 31,100 1,350 Climbing Cleveland Center
02:33PM 41.8433 -81.5364 139° Southeast 472 543 32,800 1,500 Climbing Cleveland Center
02:34PM 41.7442 -81.4236 140° Southeast 472 543 34,100 1,100 Climbing Cleveland Center
02:35PM 41.6556 -81.2972 133° Southeast 472 543 35,000 450 Climbing Cleveland Center
02:36PM 41.5875 -81.1689 125° Southeast 472 543 35,000  Level Cleveland Center
02:37PM 41.5131 -81.0269 125° Southeast 472 543 35,000  Level Cleveland Center
02:38PM 41.4406 -80.8878 125° Southeast 472 543 35,000  Level Cleveland Center
02:39PM 41.3636 -80.7464 126° Southeast 472 543 35,000 650 Level Cleveland Center
02:40PM 41.2803 -80.5914 126° Southeast 472 543 36,300 1,150 Climbing Cleveland Center
02:41PM 41.2075 -80.4506 124° Southeast 466 536 37,300 800 Climbing Cleveland Center
02:42PM 41.1322 -80.3103 125° Southeast 472 543 37,900 750 Climbing Cleveland Center
02:43PM 41.0567 -80.1700 126° Southeast 472 543 38,800 550 Climbing Cleveland Center
02:44PM 40.9831 -80.0331 125° Southeast 472 543 39,000 100 Climbing Cleveland Center
02:45PM 40.9114 -79.8989 125° Southeast 466 536 39,000  Level Cleveland Center
02:46PM 40.8356 -79.7653 127° Southeast 460 529 39,000  Level Cleveland Center
02:47PM 40.7617 -79.6319 126° Southeast 460 529 39,000  Level Cleveland Center
02:48PM 40.6875 -79.4961 126° Southeast 460 529 39,000  Level Cleveland Center
02:49PM 40.6131 -79.3606 126° Southeast 460 529 39,000  Level Cleveland Center
02:50PM 40.5447 -79.2197 123° Southeast 454 522 39,000  Level Cleveland Center
02:51PM 40.5219 -79.0564 100° East 438 504 39,000 -7,000 Level Cleveland Center
02:52PM 40.5050 -78.8900 98° East 438 504 25,000 -2,300 Descending Cleveland Center
02:53PM 40.4875 -78.7186 98° East 451 519 34,400 3,300 Climbing Cleveland Center
02:54PM 40.4700 -78.5469 98° East 467 537 31,600 -2,268 Descending Cleveland Center
02:55PM 40.4525 -78.3733 97° East 469 540 29,600 -1,922 Descending New York Center
02:56PM 40.4331 -78.2183 99° East 457 526 27,500 -2,083 Descending New York Center
02:57PM 40.4181 -78.0586 97° East 446 513 25,400 -1,240 Descending New York Center
02:58PM 40.3947 -77.8953 101° East 420 483 25,000 -1,240 Descending New York Center
02:59PM 40.3786 -77.7464 98° East 415 478 22,900 -1,627 Descending New York Center
03:00PM 40.3642 -77.5978 97° East 415 478 21,800 -1,068 Descending New York Center
03:01PM 40.3486 -77.4708 99° East 410 472 20,800 -1,041 Descending New York Center
03:02PM 40.3300 -77.3194 99° East 391 450 19,700 -1,041 Descending New York Center
03:03PM 40.3161 -77.1928 98° East 391 450 18,700 -857 Descending New York Center
03:04PM 40.2950 -77.0439 100° East 381 438 18,000 -353 Descending New York Center
03:05PM 40.2644 -76.9106 107° East 376 433 18,000  Level New York Center
03:06PM 40.2422 -76.7753 102° East 381 438 18,000  Level New York Center
03:07PM 40.2239 -76.6403 100° East 381 438 18,000 -595 Level New York Center
03:08PM 40.2014 -76.5053 102° East 376 433 16,800 -1,438 Descending New York Center
03:09PM 40.1825 -76.3761 101° East 376 433 15,100 -1,590 Descending New York Center
03:10PM 40.1617 -76.2439 102° East 376 433 13,700 -1,525 Descending New York Center
03:11PM 40.1406 -76.1147 102° East 365 420 12,100 -1,500 Descending New York Center
03:12PM 40.1225 -76.0047 102° East 358 412 10,700 -1,190 Descending New York Center
03:13PM 40.1008 -75.8781 103° East 333 383 9,700 -1,230 Descending New York Center
03:14PM 40.0864 -75.7767 101° East 313 360 8,200 -1,537 Descending New York Center
03:15PM 40.0853 -75.6600 91° East 303 349 6,600 -1,322 Descending New York Center
03:16PM 40.0972 -75.5658 81° East 287 330 5,600 -1,271 Descending New York Center
03:17PM 40.1100 -75.4553 81° East 292 336 4,100 -780 Descending New York Center
03:18PM 40.1242 -75.3639 79° East 292 336 4,000 -64 Descending New York Center
03:19PM 40.1333 -75.3000 79° East 278 320 4,000  Level Philadelphia TRACON
03:19PM 40.1367 -75.2561 84° East 282 325 4,000  Level New York Center
03:20PM 40.1508 -75.1567 79° East 277 319 4,000 -298 Level New York Center
03:21PM 40.1628 -75.0594 81° East 277 319 3,400 -492 Descending New York Center
03:22PM 40.1767 -74.9600 80° East 277 319 3,000 -198 Descending New York Center
03:23PM 40.1886 -74.8600 81° East 272 313 3,000  Level New York Center
03:24PM 40.2044 -74.7633 78° East 279 321 3,000 -436 Level New York Center
03:26PM 40.2833 -74.6667 43° Northeast 196 226 1,800 -479 Descending Philadelphia TRACON
03:27PM 40.3167 -74.7000 323° Northwest 178 205 1,700 -263 Descending Philadelphia TRACON
03:28PM 40.3167 -74.7500 270° West 134 154 1,300 -556 Descending Philadelphia TRACON
03:29PM 40.3000 -74.7833 237° Southwest 120 138 700 -667 Descending Philadelphia TRACON
03:31PM 40.2667 -74.8000 261° West  Level FlightAware Approximate